Weather in Allak

Russia / Altai Krai     53°48′03″N   81°31′49″E
temp.,
°C
wind,
m/s
gust,
m/s
humid.,
%
clouds,
%
prec.,
mm/h
press.,
hPa
HPBL,
m
24 september, fri
fri2401:00+2nnw359272 0.0 1024132
04:000nnw369620 0.0 1024130
07:00−1nnw379716 0.0 1026165
10:00+2nw467976 0.0 1027507
13:00+6wnw455093 0.0 10271493
16:00+6w5757100 0.0 10271177
19:00+6w4858100 0.0 1027716
22:00+4sw3966100 0.0 1027264
25 september, sat
sat2501:00+4sw51366100 0.0 1026417
04:00+4wsw51073100 0.1 1025765
07:00+4wsw61088100 0.4 1025598
10:00+5wsw6885100 0.2 1024820
13:00+7wsw71072100 1.5 10231156
16:00+9w71166100 0.9 10211447
19:00+6w61084100 1.5 1020926
22:00+4nw3697100 1.3 1020593
26 september, sun
sun2601:00+2nw4695100 1.6 1019381
04:00+1nnw4690100 0.1 1019530
07:00+1nnw577599 0.1 1020798
10:00+1nnw5781100 0.0 1021851
13:00+2nw5670100 0.1 10231088
16:00+3nw566989 0.1 10241013
19:00+2nnw3671100 0.1 1025940
22:00+2wnw3575100 0.0 1024307
27 september, mon
mon2701:00+2nw3684100 0.1 1024410
04:00+1nw369097 0.0 1024268
07:00+2nw3797100 0.0 1024449
10:00+2nne3593100 0.3 1025631
13:00+3ene2488100 0.6 1025491
16:00+5e3576100 0.1 1025732
19:00+4ene4673100 0.2 1025364
22:00+3ene487380 0.0 1025528
28 september, tue
tue2801:000ene3984100 0.0 1024253
04:000ene3990100 0.0 1024283
07:00−1ne389366 0.0 1023195
10:00+2e51069100 0.0 1023519
13:00+7e6846100 0.0 1021985
16:00+9e783946 0.0 10181183
19:00+6e6105848 0.0 1017439
22:00+3ene61484100 0.0 1015434